Hourly Data Report for September 25, 2018

SHEARWATER RCS
NOVA SCOTIA
Current Station Operator: ECCC - MSC

44°37'47.000" N
63°30'48.000" W
24.00 m
8205092
71264
AAW

Download Data

Hourly Data (September 2018)
Hourly Data Report for September 25, 2018
TIME Temp Definition
°C
Dew Point Definition
°C
Rel Hum Definition
%
Wind Dir Definition
10's deg

Wind Spd Definition
km/h
Visibility Definition
km
Stn Press Definition
kPa
Hmdx Definition


Wind Chill Definition


Weather Definition


00:00 4.2 -0.7 71 36 4   103.66     LegendNANA
01:00 4.4 -1.0 68 3 6   103.65     LegendNANA
02:00 4.8 0.2 72 3 6   103.64     LegendNANA
03:00 4.0 0.0 75 36 5   103.64     LegendNANA
04:00 2.5 0.2 85 33 5   103.65     LegendNANA
05:00 1.9 -0.2 86 31 7   103.65     LegendNANA
06:00 2.7 0.3 84 34 4   103.67     LegendNANA
07:00 4.8 0.0 71 31 4   103.73     LegendNANA
08:00 8.6 1.7 62 33 1   103.73     LegendNANA
09:00 10.8 -2.9 38 7 8   103.76     LegendNANA
10:00 12.3 -3.2 34 9 8   103.74     LegendNANA
11:00 13.3 2.3 47 14 11   103.70     LegendNANA
12:00 13.4 1.3 44 16 16   103.69     LegendNANA
13:00 12.8 1.7 47 15 14   103.60     LegendNANA
14:00 13.4 2.0 46 15 15   103.53     LegendNANA
15:00 13.6 2.9 48 15 15   103.46     LegendNANA
16:00 13.2 3.3 51 17 15   103.40     LegendNANA
17:00 12.8 4.3 57 17 15   103.32     LegendNANA
18:00 12.6 5.0 60 16 15   103.28     LegendNANA
19:00 12.9 4.3 56 17 21   103.21     LegendNANA
20:00 13.1 5.0 58 17 19   103.20     LegendNANA
21:00 13.5 6.0 60 17 26   103.09     LegendNANA
22:00 13.8 6.8 63 16 26   103.02     LegendNANA
23:00 13.8 6.8 62 17 28   102.97     LegendNANA

Notes on Data Quality.

Legend

  • E = Estimated
  • M = Missing
  • NA = Not Available*
  • [empty] = Indicates an unobserved value
Date modified: